AS259 Weather Reports


time (UTC)temp
C
wind
direction
speed
KPH
gust
KPH
rain 1hr
cm
rain 24hr
cm
rain mn
cm
humidity
%
barometer
mb
20260505011532 18 329 11.3 43.5 0.00 0.00 0.00 31 1006.8
20260505010532 18 349 12.9 37.0 0.00 0.00 0.00 29 1006.5
20260505005524 20 288 1.6 8.0 0.00 0.00 0.00 28 1006.4
20260505004519 20 328 1.6 8.0 0.00 0.00 0.00 28 1006.4
20260505003533 20 23 1.6 20.9 0.00 0.00 0.00 27 1006.1
20260505002529 21 350 1.6 16.1 0.00 0.00 0.00 26 1005.7
20260505001545 22 315 1.6 20.9 0.00 0.00 0.00 26 1005.7
20260505000553 22 56 3.2 20.9 0.00 0.00 0.00 26 1005.8
20260504235521 23 45 0.0 12.9 0.00 0.00 0.00 25 1005.7
20260504234543 23 356 4.8 27.4 0.00 0.00 0.00 24 1005.5
20260504233516 24 315 0.0 4.8 0.00 0.00 0.00 24 1005.3
20260504232531 24 23 0.0 16.1 0.00 0.00 0.00 23 1005.0
20260504231545 25 23 1.6 8.0 0.00 0.00 0.00 22 1005.0
20260504230520 26 3 1.6 32.2 0.00 0.00 0.00 22 1004.6
20260504225533 26 339 3.2 20.9 0.00 0.00 0.00 22 1004.4
20260504224610 26 315 0.0 4.8 0.00 0.00 0.00 22 1004.2
20260504223523 27 0 0.0 4.8 0.00 0.00 0.00 23 1003.9
20260504222519 26 296 8.0 45.1 0.00 0.00 0.00 22 1003.6
20260504221528 27 45 3.2 25.7 0.00 0.00 0.00 22 1003.5
20260504220518 27 144 1.6 12.9 0.00 0.00 0.00 22 1003.5
20260504215538 27 90 0.0 4.8 0.00 0.00 0.00 22 1003.4
20260504214527 28 270 1.6 12.9 0.00 0.00 0.00 23 1003.3
20260504213521 28 0.0 0.0 0.00 0.00 0.00 23 1003.3
20260504212536 28 270 0.0 4.8 0.00 0.00 0.00 24 1003.1
20260504211530 28 270 0.0 16.1 0.00 0.00 0.00 25 1003.3
20260504210525 28 23 0.0 9.7 0.00 0.00 0.00 26 1003.0
20260504205519 28 113 0.0 4.8 0.00 0.00 0.00 26 1003.0
20260504204528 29 286 1.6 27.4 0.00 0.00 0.00 25 1003.0
20260504203517 29 284 4.8 32.2 0.00 0.00 0.00 25 1003.0
20260504202518 29 293 3.2 32.2 0.00 0.00 0.00 26 1003.0
20260504201552 30 0.0 0.0 0.00 0.00 0.00 26 1002.9
20260504200527 30 293 0.0 4.8 0.00 0.00 0.00 26 1002.8
20260504195524 29 293 0.0 4.8 0.00 0.00 0.00 25 1002.8
20260504194519 29 0.0 0.0 0.00 0.00 0.00 26 1002.9
20260504193528 30 300 0.0 4.8 0.00 0.00 0.00 25 1002.7
20260504192524 30 290 4.8 22.5 0.00 0.00 0.00 24 1002.4
20260504191519 30 293 0.0 8.0 0.00 0.00 0.00 23 1002.4
20260504190545 30 0.0 0.0 0.00 0.00 0.00 24 1002.4
20260504185517 30 0.0 0.0 0.00 0.00 0.00 23 1002.4
20260504184519 30 0.0 0.0 0.00 0.00 0.00 23 1002.4
20260504183533 30 275 1.6 16.1 0.00 0.00 0.00 23 1002.2
20260504182528 30 0.0 0.0 0.00 0.00 0.00 22 1002.4
20260504181524 30 0.0 0.0 0.00 0.00 0.00 23 1002.6
20260504180519 29 279 1.6 17.7 0.00 0.00 0.00 24 1002.6
20260504175534 28 280 1.6 16.1 0.00 0.00 0.00 23 1002.6
20260504174528 29 277 8.0 40.2 0.00 0.00 0.00 23 1002.8
20260504173524 29 135 1.6 8.0 0.00 0.00 0.00 24 1002.7
20260504172520 29 269 9.7 43.5 0.00 0.00 0.00 25 1002.8
20260504171530 28 0.0 0.0 0.00 0.00 0.00 27 1002.9
20260504170521 29 286 12.9 35.4 0.00 0.00 0.00 27 1003.1
20260504150539 23 0.0 0.0 0.00 0.00 0.00 35 1003.0
20260504140529 21 0.0 0.0 0.00 0.00 0.00 39 1003.4
20260504130520 18 0.0 0.0 0.00 0.00 0.00 50 1003.2
20260504110534 11 0.0 0.0 0.00 0.00 0.00 62 1003.0
20260504100529 11 0.0 0.0 0.00 0.00 0.00 58 1003.4
20260504081533 13 0.0 0.0 0.00 0.00 0.00 53 1004.8
20260504080529 13 0.0 0.0 0.00 0.00 0.00 53 1004.8
20260504050532 16 0.0 0.0 0.00 0.00 0.00 50 1007.3
20260504045528 16 0.0 0.0 0.00 0.00 0.00 48 1007.4
20260504044543 17 0.0 0.0 0.00 0.00 0.00 46 1007.4
20260504043539 17 0.0 0.0 0.00 0.00 0.00 46 1007.9
20260504042532 17 0.0 0.0 0.00 0.00 0.00 46 1007.6
20260504041527 17 0.0 0.0 0.00 0.00 0.00 45 1007.9
20260504040522 17 0.0 0.0 0.00 0.00 0.00 44 1007.9
20260504035538 18 0.0 0.0 0.00 0.00 0.00 43 1008.0
20260504034525 18 0.0 0.0 0.00 0.00 0.00 44 1008.1
20260504033517 18 0.0 0.0 0.00 0.00 0.00 42 1008.2
20260504032538 18 0.0 0.0 0.00 0.00 0.00 42 1008.2
20260504031531 19 0.0 0.0 0.00 0.00 0.00 41 1008.4
20260504030526 19 0.0 0.0 0.00 0.00 0.00 41 1008.4
20260504025523 19 0.0 0.0 0.00 0.00 0.00 39 1008.4
20260504024527 20 0.0 0.0 0.00 0.00 0.00 38 1008.4
20260504023532 20 0.0 0.0 0.00 0.00 0.00 37 1008.6
20260504022526 20 0.0 0.0 0.00 0.00 0.00 37 1008.6
20260504021520 20 0.0 0.0 0.00 0.00 0.00 37 1008.6
20260504020530 21 0.0 0.0 0.00 0.00 0.00 35 1008.7
20260504015520 21 0.0 0.0 0.00 0.00 0.00 34 1008.7
20260504014540 22 0.0 0.0 0.00 0.00 0.00 33 1008.6
20260504013554 23 0.0 0.0 0.00 0.00 0.00 30 1008.6
20260504012529 23 0.0 0.0 0.00 0.00 0.00 29 1008.6